Total_Precipitation_Accumulation
1.07 1.04 1.05 1.11 1.16 1.25 1.33 1.38 1.32 1.32 1.31 1.30 1.29 1.30 1.30 1.32 1.36 1.41 1.40 1.41 1.46 1.46 1.45 1.47 1.47 1.43 1.42 1.40 1.44 1.49 1.56 1.64 1.62 1.29 1.08 1.04 1.11 1.14 1.17 1.13 1.10 1.12 1.12
0.99 0.94 0.93 0.98 1.04 1.08 1.11 1.20 1.21 1.19 1.19 1.21 1.21 1.19 1.16 1.14 1.18 1.21 1.23 1.24 1.28 1.32 1.37 1.42 1.45 1.45 1.49 1.50 1.53 1.54 1.55 1.54 1.55 1.44 1.19 1.06 1.03 1.02 1.02 1.02 0.99 0.96 0.93
0.76 0.74 0.74 0.76 0.83 0.91 0.94 0.96 1.01 1.05 1.08 1.11 1.13 1.10 1.10 1.08 1.10 1.11 1.09 1.11 1.13 1.16 1.20 1.26 1.28 1.34 1.40 1.42 1.47 1.50 1.47 1.44 1.43 1.35 1.15 0.97 0.92 0.92 0.99 0.99 0.95 0.89 0.82
0.63 0.62 0.63 0.65 0.68 0.73 0.78 0.76 0.78 0.83 0.90 0.96 1.03 1.02 1.00 1.02 1.06 1.09 1.11 1.10 1.08 1.07 1.07 1.13 1.17 1.21 1.25 1.30 1.38 1.41 1.40 1.39 1.39 1.37 1.26 1.07 0.93 0.86 0.90 0.93 0.92 0.86 0.80
0.66 0.66 0.63 0.63 0.63 0.66 0.71 0.71 0.68 0.69 0.70 0.73 0.81 0.88 0.93 0.94 0.99 1.01 1.03 1.06 1.06 1.06 1.07 1.12 1.19 1.33 1.35 1.29 1.27 1.25 1.25 1.31 1.34 1.33 1.23 1.08 0.94 0.86 0.85 0.79 0.81 0.84 0.85
0.72 0.69 0.67 0.63 0.61 0.58 0.59 0.60 0.60 0.60 0.60 0.64 0.68 0.71 0.78 0.86 1.08 1.07 0.96 0.94 1.02 1.07 1.10 1.09 1.12 1.25 1.24 1.23 1.20 1.16 1.17 1.24 1.28 1.23 1.10 0.95 0.78 0.68 0.69 0.76 0.82 0.92 0.95
0.77 0.71 0.66 0.62 0.59 0.57 0.54 0.55 0.57 0.59 0.61 0.64 0.67 0.70 0.74 0.87 1.08 1.08 1.10 0.98 0.99 1.04 1.06 1.05 1.00 0.96 1.01 0.90 0.97 1.05 1.06 1.06 1.03 0.98 0.96 0.82 0.71 0.65 0.74 0.88 0.89 0.88 0.79
0.79 0.78 0.75 0.74 0.75 0.76 0.76 0.76 0.77 0.74 0.76 0.80 0.84 0.87 0.89 0.99 1.08 1.02 1.02 0.92 0.94 0.94 0.91 0.88 0.84 0.79 0.78 0.80 0.82 0.88 0.80 0.75 0.75 0.71 0.70 0.67 0.67 0.70 0.80 0.92 0.97 1.02 0.91
0.94 0.96 0.97 1.00 1.05 1.08 1.09 1.07 1.07 1.08 1.07 1.04 0.99 0.94 0.89 0.90 0.94 0.90 0.86 0.80 0.82 0.80 0.75 0.72 0.72 0.68 0.78 0.87 0.81 0.76 0.70 0.67 0.71 0.74 0.77 0.78 0.85 0.91 0.94 1.02 1.11 1.22 1.12
1.01 1.06 1.10 1.17 1.24 1.22 1.19 1.15 1.07 1.03 1.05 1.03 1.00 0.93 0.85 0.77 0.75 0.71 0.70 0.64 0.64 0.62 0.59 0.57 0.64 0.65 0.77 0.85 0.77 0.74 0.70 0.59 0.58 0.63 0.66 0.67 0.67 0.73 0.87 0.86 0.94 1.21 1.12
0.95 0.97 1.00 1.00 1.03 1.01 0.98 0.94 0.89 0.84 0.80 0.77 0.73 0.67 0.61 0.59 0.60 0.59 0.60 0.55 0.55 0.56 0.56 0.55 0.56 0.67 0.73 0.77 0.78 0.70 0.69 0.69 0.64 0.63 0.64 0.64 0.63 0.65 0.69 0.69 0.75 1.03 1.24
0.70 0.70 0.69 0.65 0.61 0.62 0.64 0.65 0.63 0.61 0.59 0.56 0.52 0.49 0.45 0.44 0.47 0.49 0.56 0.59 0.60 0.56 0.54 0.53 0.58 0.72 0.77 0.77 0.73 0.72 0.79 0.82 0.72 0.72 0.71 0.68 0.63 0.59 0.57 0.59 0.65 0.71 0.81
0.32 0.33 0.35 0.34 0.34 0.35 0.38 0.41 0.44 0.45 0.45 0.46 0.45 0.44 0.41 0.38 0.40 0.47 0.51 0.59 0.65 0.59 0.54 0.58 0.64 0.70 0.72 0.70 0.71 0.74 0.74 0.69 0.69 0.71 0.68 0.60 0.56 0.56 0.62 0.68 0.72 0.73 0.73
0.17 0.18 0.21 0.24 0.27 0.29 0.33 0.36 0.39 0.40 0.40 0.41 0.42 0.42 0.40 0.36 0.35 0.39 0.46 0.52 0.61 0.63 0.61 0.63 0.65 0.66 0.64 0.63 0.64 0.65 0.63 0.62 0.67 0.68 0.64 0.62 0.66 0.72 0.74 0.76 0.83 0.83 0.88
0.15 0.16 0.18 0.21 0.24 0.26 0.28 0.34 0.40 0.41 0.44 0.48 0.46 0.44 0.45 0.43 0.39 0.48 0.57 0.60 0.63 0.67 0.72 0.70 0.65 0.60 0.59 0.58 0.56 0.56 0.58 0.61 0.66 0.65 0.70 0.74 0.75 0.75 0.74 0.73 0.82 0.89 0.92
0.20 0.20 0.23 0.24 0.25 0.26 0.27 0.29 0.34 0.39 0.43 0.45 0.47 0.47 0.43 0.45 0.48 0.54 0.59 0.63 0.70 0.79 0.84 0.74 0.61 0.55 0.53 0.53 0.54 0.56 0.57 0.60 0.62 0.67 0.74 0.77 0.81 0.81 0.79 0.75 0.80 0.89 0.88
0.28 0.29 0.30 0.30 0.30 0.29 0.30 0.32 0.32 0.34 0.38 0.41 0.43 0.46 0.45 0.45 0.49 0.53 0.56 0.62 0.69 0.77 0.75 0.62 0.53 0.51 0.51 0.52 0.55 0.59 0.58 0.57 0.63 0.72 0.78 0.81 0.86 0.88 0.88 0.86 0.85 0.89 0.85
0.31 0.35 0.38 0.36 0.37 0.39 0.39 0.40 0.41 0.42 0.40 0.38 0.41 0.48 0.50 0.52 0.54 0.56 0.60 0.67 0.69 0.65 0.55 0.50 0.50 0.51 0.54 0.58 0.61 0.64 0.64 0.65 0.69 0.72 0.76 0.82 0.91 0.98 0.96 0.88 0.85 0.89 0.91
0.32 0.35 0.38 0.40 0.43 0.45 0.46 0.47 0.47 0.46 0.44 0.40 0.38 0.42 0.52 0.60 0.64 0.64 0.67 0.67 0.62 0.54 0.48 0.46 0.50 0.56 0.61 0.65 0.67 0.71 0.75 0.77 0.75 0.80 0.82 0.83 0.91 1.05 1.01 0.87 0.87 0.87 0.95
0.32 0.39 0.42 0.41 0.43 0.46 0.48 0.48 0.48 0.47 0.46 0.44 0.41 0.42 0.51 0.64 0.63 0.59 0.59 0.60 0.61 0.59 0.56 0.56 0.56 0.60 0.66 0.71 0.74 0.78 0.81 0.80 0.82 0.87 0.88 0.88 0.92 1.04 1.06 0.96 0.96 1.00 0.94
0.35 0.38 0.45 0.43 0.42 0.46 0.50 0.53 0.52 0.51 0.50 0.46 0.43 0.48 0.66 0.76 0.68 0.59 0.58 0.59 0.62 0.64 0.66 0.67 0.66 0.68 0.73 0.78 0.82 0.83 0.82 0.79 0.80 0.88 0.89 0.90 0.94 1.00 0.95 0.98 0.99 1.02 1.07
0.38 0.39 0.42 0.45 0.47 0.51 0.56 0.57 0.58 0.57 0.56 0.54 0.50 0.53 0.66 0.68 0.62 0.60 0.59 0.60 0.61 0.64 0.68 0.76 0.77 0.74 0.81 0.92 0.97 0.99 0.90 0.78 0.76 0.86 0.91 0.87 0.90 0.93 0.98 1.07 1.09 1.11 1.09
0.43 0.45 0.46 0.48 0.51 0.57 0.59 0.56 0.57 0.59 0.59 0.59 0.59 0.59 0.60 0.62 0.60 0.60 0.60 0.61 0.64 0.67 0.69 0.76 0.80 0.76 0.75 0.86 0.96 1.13 1.17 0.98 0.87 0.96 1.14 1.13 1.07 1.08 1.15 1.19 1.11 1.07 0.97
0.45 0.47 0.50 0.51 0.52 0.54 0.55 0.53 0.54 0.55 0.57 0.58 0.59 0.59 0.58 0.60 0.61 0.61 0.63 0.66 0.68 0.69 0.69 0.74 0.76 0.75 0.75 0.82 0.88 0.94 1.03 1.13 1.31 1.43 1.51 1.64 1.43 1.20 1.17 1.14 1.03 0.95 0.93
0.42 0.46 0.48 0.50 0.51 0.52 0.52 0.51 0.51 0.52 0.54 0.55 0.55 0.55 0.55 0.56 0.58 0.60 0.63 0.65 0.65 0.65 0.63 0.67 0.73 0.76 0.77 0.78 0.81 0.84 0.91 1.09 1.39 1.69 1.73 1.62 1.36 1.14 1.15 1.15 1.04 0.98 0.96
0.40 0.44 0.47 0.49 0.50 0.50 0.50 0.50 0.49 0.50 0.52 0.51 0.52 0.54 0.54 0.55 0.56 0.57 0.59 0.61 0.61 0.59 0.57 0.58 0.62 0.69 0.73 0.73 0.69 0.75 0.89 1.02 1.08 1.19 1.53 1.65 1.43 1.18 1.15 1.25 1.15 1.09 1.04